Location: *
(33.8649°S, 62.1526°E)
Time: 20:20:24
(UTC+00:00)

Tiangong - Pass Details

Date: 24 September 2021
Orbit: 382 x 385 km, 41.5° (Epoch: 18 October)

Event Time Altitude Azimuth Distance (km) Brightness Sun altitude
Rises 15:54:01 0° 249° (WSW) 2,296 6.3 -26.2°
Reaches altitude 10° 15:56:28 10° 231° (SW) 1,440 4.9 -26.7°
Enters shadow 15:57:42 17° 212° (SSW) 1,114 3.9 -26.9°
